Roseau, MN

1:13 PM CDT on March 26, 2017 (GMT -0500)
Roseau Municipal-Billberg

Weather History for KROX - February, 2013

Change the Weather History Date:

Saturday, February 2, 2013

  Actual Average Record
Temperature  
Mean Temperature -10 °F -  
Max Temperature 3 °F 13 °F 48 °F (2002)
Min Temperature -23 °F -9 °F -35 °F (1970)
Degree Days  
Heating Degree Days 75    
Moisture  
Dew Point -14 °F    
Average Humidity 72    
Maximum Humidity 78    
Minimum Humidity 63    
Precipitation  
Precipitation 0.00 in - - ()
Sea Level Pressure  
Sea Level Pressure 30.04 in    
Wind  
Wind Speed 4 mph (WSW)    
Max Wind Speed 13 mph    
Max Gust Speed 18 mph    
Visibility 10 miles    
Events Snow    
Averages and records for this station are not official NWS values.
T = Trace of Precipitation, MM = Missing Value Source: NWS Daily Summary

Daily Weather History Graph

Daily Weather History Graph

Search for Another Location

Airport or City:

Trip Planner

Search our weather history database for the weather conditions in past years. The results will help you decide how hot, cold, wet, or windy it might be!

Date:

Astronomy

Feb. 02, 2013 Rise Set
Actual Time 7:51 AM CST 5:22 PM CST
Civil Twilight 7:17 AM CST 5:56 PM CST
Nautical Twilight 6:39 AM CST 6:34 PM CST
Astronomical Twilight 6:02 AM CST 7:11 PM CST
Moon 12:07 AM CST (2/2) 10:22 AM CST (2/2)
Length of Visible Light 10h 39m
Length of Day
9h 31m
Waning Gibbous, 59% of the Moon is Illuminated
Feb 2
Waning Gibbous
Feb 3
Last Quarter
Feb 10
New
Feb 17
First Quarter
Feb 25
Full

Hourly Weather History & Observations

Time (CST) Temp. Windchill Dew Point Humidity Pressure Visibility Wind Dir Wind Speed Gust Speed Precip Events Conditions
12:14 AM -11.2 °F -20.6 °F -18.4 °F 70% 30.11 in 10.0 mi WNW 3.5 mph - N/A   Clear
12:34 AM -9.4 °F -18.6 °F -16.6 °F 71% 30.11 in 10.0 mi WNW 3.5 mph - N/A   Clear
12:55 AM -11.2 °F -20.6 °F -16.6 °F 77% 30.11 in 10.0 mi WNW 3.5 mph - N/A   Clear
1:14 AM -11.2 °F -23.0 °F -18.4 °F 70% 30.12 in 10.0 mi NW 4.6 mph - N/A   Clear
1:34 AM -11.2 °F -23.0 °F -18.4 °F 70% 30.12 in 10.0 mi NW 4.6 mph - N/A   Clear
1:54 AM -13.0 °F -25.1 °F -18.4 °F 77% 30.13 in 10.0 mi NW 4.6 mph - N/A   Clear
2:14 AM -14.8 °F -24.8 °F -20.2 °F 77% 30.13 in 10.0 mi NNW 3.5 mph - N/A   Clear
2:34 AM -13.0 °F - -20.2 °F 70% 30.13 in 10.0 mi Calm Calm - N/A   Clear
3:14 AM -16.6 °F - -23.8 °F 70% 30.14 in 10.0 mi Calm Calm - N/A   Clear
3:34 AM -16.6 °F - -23.8 °F 70% 30.14 in 10.0 mi Calm Calm - N/A   Clear
3:54 AM -18.4 °F -28.9 °F -23.8 °F 76% 30.14 in 10.0 mi West 3.5 mph - N/A   Clear
4:14 AM -20.2 °F - -27.4 °F 69% 30.14 in 10.0 mi Calm Calm - N/A   Clear
4:34 AM -22.0 °F - -29.2 °F 69% 30.13 in 10.0 mi Calm Calm - N/A   Clear
4:54 AM -22.0 °F - -29.2 °F 69% 30.13 in 10.0 mi Calm Calm - N/A   Clear
5:14 AM -23.8 °F - -29.2 °F 76% 30.14 in 10.0 mi Calm Calm - N/A   Clear
5:34 AM -23.8 °F - -31.0 °F 69% 30.13 in 10.0 mi Calm Calm - N/A   Clear
5:55 AM -22.0 °F - -29.2 °F 69% 30.12 in 10.0 mi Calm Calm - N/A   Clear
6:14 AM -23.8 °F -35.0 °F -29.2 °F 76% 30.12 in 10.0 mi SSW 3.5 mph - N/A   Clear
6:34 AM -23.8 °F - -31.0 °F 69% 30.12 in 10.0 mi Calm Calm - N/A   Clear
6:55 AM -23.8 °F - -29.2 °F 76% 30.12 in 10.0 mi Calm Calm - N/A   Clear
7:14 AM -23.8 °F - -31.0 °F 69% 30.11 in 10.0 mi Calm Calm - N/A   Clear
7:34 AM -23.8 °F -35.0 °F -32.8 °F 63% 30.10 in 10.0 mi SSE 3.5 mph - N/A   Clear
7:55 AM -23.8 °F -35.0 °F -29.2 °F 76% 30.10 in 10.0 mi South 3.5 mph - N/A   Clear
8:14 AM -22.0 °F - -29.2 °F 69% 30.11 in 10.0 mi Calm Calm - N/A   Clear
8:34 AM -18.4 °F -31.4 °F -25.6 °F 70% 30.10 in 10.0 mi South 4.6 mph - N/A   Clear
8:55 AM -18.4 °F -31.4 °F -23.8 °F 76% 30.09 in 10.0 mi South 4.6 mph - N/A   Clear
9:14 AM -16.6 °F -31.3 °F -23.8 °F 70% 30.08 in 10.0 mi South 5.8 mph - N/A   Clear
9:34 AM -14.8 °F -29.1 °F -22.0 °F 70% 30.07 in 10.0 mi South 5.8 mph - N/A   Clear
9:55 AM -11.2 °F -23.0 °F -18.4 °F 70% 30.07 in 10.0 mi South 4.6 mph - N/A   Clear
10:14 AM -9.4 °F -24.3 °F -16.6 °F 71% 30.06 in 10.0 mi South 6.9 mph - N/A   Clear
10:34 AM -9.4 °F -25.6 °F -14.8 °F 77% 30.04 in 10.0 mi South 8.1 mph - N/A   Clear
10:54 AM -7.6 °F -24.6 °F -13.0 °F 77% 30.03 in 10.0 mi South 9.2 mph - N/A   Clear
11:14 AM -5.8 °F -19.9 °F -11.2 °F 77% 30.02 in 10.0 mi South 6.9 mph - N/A   Clear
11:34 AM -5.8 °F -21.2 °F -11.2 °F 77% 30.02 in 10.0 mi South 8.1 mph - N/A   Clear
11:54 AM -2.2 °F -14.2 °F -9.4 °F 71% 30.01 in 10.0 mi SSW 5.8 mph - N/A   Scattered Clouds
12:14 PM -2.2 °F -16.8 °F -9.4 °F 71% 30.00 in 10.0 mi SSW 8.1 mph - N/A   Scattered Clouds
12:34 PM -0.4 °F -12.0 °F -9.4 °F 66% 29.99 in 10.0 mi SW 5.8 mph - N/A   Scattered Clouds
12:54 PM -0.4 °F -13.4 °F -9.4 °F 66% 30.01 in 10.0 mi SW 6.9 mph - N/A   Scattered Clouds
1:14 PM -0.4 °F -13.4 °F -7.6 °F 72% 30.01 in 10.0 mi WSW 6.9 mph - N/A   Scattered Clouds
1:34 PM -0.4 °F -12.0 °F -7.6 °F 72% 30.00 in 10.0 mi SW 5.8 mph - N/A   Scattered Clouds
1:54 PM 1.4 °F -8.3 °F -7.6 °F 66% 29.99 in 10.0 mi SW 4.6 mph - N/A   Mostly Cloudy
2:14 PM 1.4 °F -8.3 °F -7.6 °F 66% 29.98 in 10.0 mi SW 4.6 mph - N/A   Overcast
2:34 PM 1.4 °F -11.3 °F -7.6 °F 66% 29.97 in 10.0 mi SW 6.9 mph - N/A Snow Light Snow
2:54 PM 1.4 °F -9.9 °F -7.6 °F 66% 29.97 in 5.0 mi SW 5.8 mph - N/A Snow Light Snow
3:14 PM 1.4 °F -8.3 °F -5.8 °F 72% 29.95 in 7.0 mi South 4.6 mph - N/A Snow Light Snow
3:35 PM 1.4 °F -8.3 °F -5.8 °F 72% 29.96 in 7.0 mi SSW 4.6 mph - N/A Snow Light Snow
3:54 PM 1.4 °F -11.3 °F -5.8 °F 72% 29.94 in 7.0 mi South 6.9 mph - N/A Snow Light Snow
4:14 PM 1.4 °F -9.9 °F -5.8 °F 72% 29.96 in 7.0 mi SSW 5.8 mph - N/A Snow Light Snow
4:34 PM 1.4 °F -11.3 °F -5.8 °F 72% 29.94 in 10.0 mi SSW 6.9 mph - N/A Snow Light Snow
4:54 PM 1.4 °F -9.9 °F -5.8 °F 72% 29.96 in 7.0 mi WSW 5.8 mph - N/A Snow Light Snow
5:14 PM 1.4 °F -9.9 °F -5.8 °F 72% - 10.0 mi WSW 5.8 mph - N/A Snow Light Snow
5:34 PM 1.4 °F -11.3 °F -5.8 °F 72% 29.97 in 7.0 mi WSW 6.9 mph - N/A Snow Light Snow
6:14 PM 1.4 °F -9.9 °F -5.8 °F 72% 29.97 in 7.0 mi WSW 5.8 mph - N/A Snow Light Snow
6:34 PM 1.4 °F -8.3 °F -5.8 °F 72% 29.98 in 10.0 mi West 4.6 mph - N/A Snow Light Snow
6:54 PM 3.2 °F -7.8 °F -4.0 °F 72% 29.97 in 10.0 mi WSW 5.8 mph - N/A   Overcast
7:14 PM 3.2 °F -10.3 °F -4.0 °F 72% 29.96 in 7.0 mi West 8.1 mph - N/A Snow Light Snow
7:34 PM 3.2 °F -9.1 °F -4.0 °F 72% 29.96 in 10.0 mi West 6.9 mph - N/A Snow Light Snow
7:54 PM 3.2 °F -10.3 °F -4.0 °F 72% 29.97 in 10.0 mi West 8.1 mph - N/A Snow Light Snow
8:14 PM 3.2 °F -12.2 °F -4.0 °F 72% 29.97 in 10.0 mi West 10.4 mph 16.1 mph N/A   Overcast
8:34 PM 1.4 °F -13.5 °F -4.0 °F 78% 29.97 in 10.0 mi West 9.2 mph - N/A   Overcast
8:54 PM 1.4 °F -16.1 °F -4.0 °F 78% 29.97 in 10.0 mi West 12.7 mph 17.3 mph N/A   Overcast
9:14 PM 1.4 °F -12.5 °F -4.0 °F 78% 29.96 in 10.0 mi West 8.1 mph - N/A Snow Light Snow
9:34 PM 1.4 °F -13.5 °F -4.0 °F 78% 29.95 in 10.0 mi West 9.2 mph - N/A   Overcast
9:55 PM 3.2 °F -12.2 °F -2.2 °F 78% 29.97 in 10.0 mi West 10.4 mph 16.1 mph N/A   Overcast
10:14 PM 3.2 °F -12.2 °F -2.2 °F 78% 29.97 in 10.0 mi West 10.4 mph 18.4 mph N/A   Overcast
10:34 PM 3.2 °F -13.1 °F -2.2 °F 78% 29.96 in 10.0 mi West 11.5 mph 17.3 mph N/A   Overcast
10:55 PM 3.2 °F -12.2 °F -2.2 °F 78% 29.96 in 10.0 mi WNW 10.4 mph - N/A   Overcast
11:14 PM 3.2 °F -13.1 °F -2.2 °F 78% 29.97 in 10.0 mi WNW 11.5 mph - N/A   Overcast
11:54 PM 3.2 °F -12.2 °F -2.2 °F 78% 29.97 in 10.0 mi NW 10.4 mph - N/A   Overcast